Current weather by "City, St" or "zip code"  
 
Advertise Here

Current Conditions: Columbus/West Point/Starkville, Golden Triangle Regional Airport, MS

Mostly Cloudy


85.0 F

Last Updated on Aug 4 2020, 5:56 pm CDT
Humidity: 68%
Wind Speed: 4.6 mph
Barometer 29.95 in
Dewpoint: 73.0 F
Visibility: 10.00 mi
Precip: Trace
Heat Index: 92 F
Wind Chill: NA
Current conditions at:

Columbus/West Point/Starkville, Golden Triangle Regional Airport, MS (KGTR)

Lat: 33.45 Lon: 88.58333

Local Radar Image active severe weather and emergency alerts image image weather storm and storm spotter reports image weather observation monitoring service image
Local
Radar
Active
Alerts
Storm Reports Obs
Monitoring

Sign-up For Email & Text Message Weather Alert Notification Services


Advertise Here

Observation History for Columbus/West Point/Starkville, Golden Triangle Regional Airport, MS


Time Wind
(mph)
Vis
(mi)
Weather Precip (in) Temperature (F) Relative
Humidity
Wind
Chill
(F)
Heat
Index
(F)
Pressure
Air Dwpt altimeter
(in)
sea level
(mb)
Rmks
5:56 pm CDT 4.6 10.00 Mostly Cloudy Trace 85.0 73.0 68% NA 92 29.95 1014.5
4:56 pm CDT N 0.0 10.00 Light Rain Trace 79.0 73.0 82% NA NA 29.96 1014.9
3:56 pm CDT N 13.8 G 18.4 10.00 Mostly Cloudy -- 87.0 71.1 59% NA 93 29.95 1014.5
2:56 pm CDT N 5.8 10.00 A Few Clouds -- 91.0 72.0 54% NA 98 29.96 1014.8
1:56 pm CDT N 8.1 10.00 Fair -- 90.0 71.1 54% NA 96 29.96 1015.1
12:56 pm CDT N 5.8 10.00 Mostly Cloudy -- 89.0 72.0 57% NA 96 29.98 1015.6
11:56 am CDT 3.5 10.00 A Few Clouds -- 86.0 72.0 63% NA 92 29.99 1016.0
10:56 am CDT 3.5 10.00 A Few Clouds -- 84.0 72.0 67% NA 90 30.00 1016.3
9:56 am CDT N 0.0 10.00 Fair -- 82.0 72.0 72% NA 87 29.99 1016.2
8:56 am CDT N 0.0 10.00 Fair -- 80.0 73.0 79% NA 84 29.99 1016.0
7:56 am CDT N 0.0 10.00 Fair -- 75.0 72.0 90% NA NA 29.98 1015.6
6:56 am CDT NW 3.5 10.00 A Few Clouds -- 70.0 70.0 100% NA NA 29.97 1015.2
5:56 am CDT N 0.0 10.00 Mostly Cloudy -- 71.0 70.0 96% NA NA 29.96 1014.8
4:56 am CDT N 0.0 10.00 Mostly Cloudy -- 69.0 69.1 100% NA NA 29.95 1014.6
3:56 am CDT N 0.0 10.00 Overcast -- 69.0 69.1 100% NA NA 29.94 1014.3
2:56 am CDT N 0.0 10.00 Mostly Cloudy -- 69.0 69.1 100% NA NA 29.93 1014.1
1:56 am CDT SW 3.5 10.00 Fair -- 69.0 69.1 100% NA NA 29.93 1013.9
12:56 am CDT N 0.0 10.00 Fair -- 72.0 71.1 97% NA NA 29.95 1014.5
11:56 pm CDT N 0.0 10.00 Fair -- 74.0 71.1 91% NA NA 29.95 1014.7
10:56 pm CDT N 0.0 10.00 Fair -- 74.0 72.0 94% NA NA 29.95 1014.6
9:56 pm CDT N 0.0 10.00 Partly Cloudy -- 76.0 72.0 88% NA NA 29.95 1014.6
8:56 pm CDT NW 5.8 10.00 Overcast -- 80.0 71.1 74% NA 83 29.94 1014.2
7:56 pm CDT N 0.0 10.00 Fair -- 81.0 72.0 74% NA 85 29.92 1013.7
6:56 pm CDT SW 4.6 10.00 Fair -- 86.0 71.1 61% NA 92 29.91 1013.3

Regional Weather Observation


Monroe County Airport, MS (KM40)

Fair
84.0 F

Columbus Air Force Base, MS (KCBM)

Fair
86.0 F

Columbus/West Point/Starkville, Golden Triangle Regional Airport, MS (KGTR)

Mostly Cloudy
85.0 F

Tupelo, Tupelo Regional Airport, MS (KTUP)

Partly Cloudy
84.0 F

Oxford, University-Oxford Airport, MS (KUOX)

A Few Clouds
84.0 F

Tuscaloosa Regional Airport, AL (KTCL)

Mostly Cloudy
87.0 F